owner,sensor,date,latitude,longitude,sea_surface_height_above_sea_level,qcFlag 
TCOON,ioos:station:TCOON:003:1,2017-07-01T00:18:00Z,26.8015,-97.4706,1.577,1111122 
TCOON,ioos:station:TCOON:003:1,2017-07-01T01:18:00Z,26.8015,-97.4706,1.575,1111122 
TCOON,ioos:station:TCOON:003:1,2017-07-01T02:18:00Z,26.8015,-97.4706,1.573,1111122 
TCOON,ioos:station:TCOON:003:1,2017-07-01T03:18:00Z,26.8015,-97.4706,1.577,1111122 
TCOON,ioos:station:TCOON:003:1,2017-07-01T04:18:00Z,26.8015,-97.4706,1.594,1111122 
TCOON,ioos:station:TCOON:003:1,2017-07-01T05:18:00Z,26.8015,-97.4706,1.604,1111122 
TCOON,ioos:station:TCOON:003:1,2017-07-01T06:18:00Z,26.8015,-97.4706,1.597,1111122 
TCOON,ioos:station:TCOON:003:1,2017-07-01T07:18:00Z,26.8015,-97.4706,1.574,1111122 
TCOON,ioos:station:TCOON:003:1,2017-07-01T08:18:00Z,26.8015,-97.4706,1.55,1111122 
TCOON,ioos:station:TCOON:003:1,2017-07-01T09:18:00Z,26.8015,-97.4706,1.56,1111122 
TCOON,ioos:station:TCOON:003:1,2017-07-01T10:18:00Z,26.8015,-97.4706,1.572,1111122 
TCOON,ioos:station:TCOON:003:1,2017-07-01T11:18:00Z,26.8015,-97.4706,1.577,1111122 
TCOON,ioos:station:TCOON:003:1,2017-07-01T12:18:00Z,26.8015,-97.4706,1.57,1111122 
TCOON,ioos:station:TCOON:003:1,2017-07-01T13:18:00Z,26.8015,-97.4706,1.547,1111122 
TCOON,ioos:station:TCOON:003:1,2017-07-01T14:24:00Z,26.8015,-97.4706,1.52,1111122 
TCOON,ioos:station:TCOON:003:1,2017-07-01T15:18:00Z,26.8015,-97.4706,1.517,1111122 
TCOON,ioos:station:TCOON:003:1,2017-07-01T16:18:00Z,26.8015,-97.4706,1.524,1111122 
TCOON,ioos:station:TCOON:003:1,2017-07-01T17:18:00Z,26.8015,-97.4706,1.527,1111122 
TCOON,ioos:station:TCOON:003:1,2017-07-01T18:18:00Z,26.8015,-97.4706,1.525,1111122 
TCOON,ioos:station:TCOON:003:1,2017-07-01T19:18:00Z,26.8015,-97.4706,1.513,1111122 
TCOON,ioos:station:TCOON:003:1,2017-07-01T20:18:00Z,26.8015,-97.4706,1.511,1111122 
TCOON,ioos:station:TCOON:003:1,2017-07-01T21:18:00Z,26.8015,-97.4706,1.511,1111122 
TCOON,ioos:station:TCOON:003:1,2017-07-01T22:18:00Z,26.8015,-97.4706,1.511,1111122 
TCOON,ioos:station:TCOON:003:1,2017-07-01T23:18:00Z,26.8015,-97.4706,1.509,1111122 
TCOON,ioos:station:TCOON:003:1,2017-07-02T00:18:00Z,26.8015,-97.4706,1.499,1111122 
TCOON,ioos:station:TCOON:003:1,2017-07-02T01:24:00Z,26.8015,-97.4706,1.501,1111122 
TCOON,ioos:station:TCOON:003:1,2017-07-02T02:18:00Z,26.8015,-97.4706,1.509,1111122 
TCOON,ioos:station:TCOON:003:1,2017-07-02T03:18:00Z,26.8015,-97.4706,1.508,1111122 
TCOON,ioos:station:TCOON:003:1,2017-07-02T04:18:00Z,26.8015,-97.4706,1.5,1111122 
TCOON,ioos:station:TCOON:003:1,2017-07-02T05:18:00Z,26.8015,-97.4706,1.499,1111122 
TCOON,ioos:station:TCOON:003:1,2017-07-02T06:18:00Z,26.8015,-97.4706,1.497,1111122 
TCOON,ioos:station:TCOON:003:1,2017-07-02T07:18:00Z,26.8015,-97.4706,1.49,1111122 
TCOON,ioos:station:TCOON:003:1,2017-07-02T08:18:00Z,26.8015,-97.4706,1.478,1111122 
TCOON,ioos:station:TCOON:003:1,2017-07-02T09:24:00Z,26.8015,-97.4706,1.456,1111122 
TCOON,ioos:station:TCOON:003:1,2017-07-02T10:18:00Z,26.8015,-97.4706,1.455,1111122 
TCOON,ioos:station:TCOON:003:1,2017-07-02T11:24:00Z,26.8015,-97.4706,1.455,1111122 
TCOON,ioos:station:TCOON:003:1,2017-07-02T12:18:00Z,26.8015,-97.4706,1.454,1111122 
TCOON,ioos:station:TCOON:003:1,2017-07-02T13:18:00Z,26.8015,-97.4706,1.443,1111122 
TCOON,ioos:station:TCOON:003:1,2017-07-02T14:18:00Z,26.8015,-97.4706,1.419,1111122 
TCOON,ioos:station:TCOON:003:1,2017-07-02T15:18:00Z,26.8015,-97.4706,1.393,1111122 
TCOON,ioos:station:TCOON:003:1,2017-07-02T16:18:00Z,26.8015,-97.4706,1.375,1111122 
TCOON,ioos:station:TCOON:003:1,2017-07-02T17:18:00Z,26.8015,-97.4706,1.38,1111122 
TCOON,ioos:station:TCOON:003:1,2017-07-02T18:18:00Z,26.8015,-97.4706,1.392,1111122 
TCOON,ioos:station:TCOON:003:1,2017-07-02T19:18:00Z,26.8015,-97.4706,1.402,1111122 
TCOON,ioos:station:TCOON:003:1,2017-07-02T20:18:00Z,26.8015,-97.4706,1.4,1111122 
TCOON,ioos:station:TCOON:003:1,2017-07-02T21:18:00Z,26.8015,-97.4706,1.395,1111122 
TCOON,ioos:station:TCOON:003:1,2017-07-02T22:18:00Z,26.8015,-97.4706,1.413,1111122 
TCOON,ioos:station:TCOON:003:1,2017-07-02T23:18:00Z,26.8015,-97.4706,1.444,1111122 
TCOON,ioos:station:TCOON:003:1,2017-07-03T00:18:00Z,26.8015,-97.4706,1.447,1111122 
TCOON,ioos:station:TCOON:003:1,2017-07-03T01:18:00Z,26.8015,-97.4706,1.437,1111122 
TCOON,ioos:station:TCOON:003:1,2017-07-03T02:18:00Z,26.8015,-97.4706,1.41,1111122 
TCOON,ioos:station:TCOON:003:1,2017-07-03T03:18:00Z,26.8015,-97.4706,1.395,1111122 
TCOON,ioos:station:TCOON:003:1,2017-07-03T04:36:00Z,26.8015,-97.4706,1.403,1111122 
TCOON,ioos:station:TCOON:003:1,2017-07-03T05:18:00Z,26.8015,-97.4706,1.403,1111122 
TCOON,ioos:station:TCOON:003:1,2017-07-03T06:18:00Z,26.8015,-97.4706,1.408,1111122 
TCOON,ioos:station:TCOON:003:1,2017-07-03T07:18:00Z,26.8015,-97.4706,1.411,1111122 
TCOON,ioos:station:TCOON:003:1,2017-07-03T08:18:00Z,26.8015,-97.4706,1.413,1111122 
TCOON,ioos:station:TCOON:003:1,2017-07-03T09:18:00Z,26.8015,-97.4706,1.418,1111122 
TCOON,ioos:station:TCOON:003:1,2017-07-03T10:18:00Z,26.8015,-97.4706,1.415,1111122 
TCOON,ioos:station:TCOON:003:1,2017-07-03T11:18:00Z,26.8015,-97.4706,1.381,1111122 
TCOON,ioos:station:TCOON:003:1,2017-07-03T12:18:00Z,26.8015,-97.4706,1.363,1111122 
TCOON,ioos:station:TCOON:003:1,2017-07-03T13:18:00Z,26.8015,-97.4706,1.364,1111122 
TCOON,ioos:station:TCOON:003:1,2017-07-03T14:18:00Z,26.8015,-97.4706,1.369,1111122 
TCOON,ioos:station:TCOON:003:1,2017-07-03T15:18:00Z,26.8015,-97.4706,1.369,1111122 
TCOON,ioos:station:TCOON:003:1,2017-07-03T16:18:00Z,26.8015,-97.4706,1.369,1111122 
TCOON,ioos:station:TCOON:003:1,2017-07-03T17:18:00Z,26.8015,-97.4706,1.375,1111122 
TCOON,ioos:station:TCOON:003:1,2017-07-03T18:24:00Z,26.8015,-97.4706,1.381,1111122 
TCOON,ioos:station:TCOON:003:1,2017-07-03T19:18:00Z,26.8015,-97.4706,1.4,1111122 
TCOON,ioos:station:TCOON:003:1,2017-07-03T20:18:00Z,26.8015,-97.4706,1.42,1111122 
TCOON,ioos:station:TCOON:003:1,2017-07-03T21:18:00Z,26.8015,-97.4706,1.431,1111122 
TCOON,ioos:station:TCOON:003:1,2017-07-03T22:18:00Z,26.8015,-97.4706,1.457,1111122 
TCOON,ioos:station:TCOON:003:1,2017-07-03T23:18:00Z,26.8015,-97.4706,1.461,1111122 
TCOON,ioos:station:TCOON:003:1,2017-07-04T00:18:00Z,26.8015,-97.4706,1.444,1111122 
TCOON,ioos:station:TCOON:003:1,2017-07-04T01:18:00Z,26.8015,-97.4706,1.436,1111122 
TCOON,ioos:station:TCOON:003:1,2017-07-04T02:18:00Z,26.8015,-97.4706,1.441,1111122 
TCOON,ioos:station:TCOON:003:1,2017-07-04T03:18:00Z,26.8015,-97.4706,1.439,1111122 
TCOON,ioos:station:TCOON:003:1,2017-07-04T04:18:00Z,26.8015,-97.4706,1.434,1111122 
TCOON,ioos:station:TCOON:003:1,2017-07-04T05:18:00Z,26.8015,-97.4706,1.43,1111122 
TCOON,ioos:station:TCOON:003:1,2017-07-04T06:18:00Z,26.8015,-97.4706,1.428,1111122 
TCOON,ioos:station:TCOON:003:1,2017-07-04T07:18:00Z,26.8015,-97.4706,1.434,1111122 
TCOON,ioos:station:TCOON:003:1,2017-07-04T08:18:00Z,26.8015,-97.4706,1.443,1111122 
TCOON,ioos:station:TCOON:003:1,2017-07-04T09:18:00Z,26.8015,-97.4706,1.435,1111122 
TCOON,ioos:station:TCOON:003:1,2017-07-04T10:18:00Z,26.8015,-97.4706,1.401,1111122 
TCOON,ioos:station:TCOON:003:1,2017-07-04T11:18:00Z,26.8015,-97.4706,1.364,1111122 
TCOON,ioos:station:TCOON:003:1,2017-07-04T12:18:00Z,26.8015,-97.4706,1.364,1111122 
TCOON,ioos:station:TCOON:003:1,2017-07-04T13:18:00Z,26.8015,-97.4706,1.36,1111122 
TCOON,ioos:station:TCOON:003:1,2017-07-04T14:18:00Z,26.8015,-97.4706,1.35,1111122 
TCOON,ioos:station:TCOON:003:1,2017-07-04T15:18:00Z,26.8015,-97.4706,1.338,1111122 
TCOON,ioos:station:TCOON:003:1,2017-07-04T16:18:00Z,26.8015,-97.4706,1.332,1111122 
TCOON,ioos:station:TCOON:003:1,2017-07-04T17:18:00Z,26.8015,-97.4706,1.339,1111122 
TCOON,ioos:station:TCOON:003:1,2017-07-04T18:18:00Z,26.8015,-97.4706,1.354,1111122 
TCOON,ioos:station:TCOON:003:1,2017-07-04T19:18:00Z,26.8015,-97.4706,1.361,1111122 
TCOON,ioos:station:TCOON:003:1,2017-07-04T20:18:00Z,26.8015,-97.4706,1.372,1111122 
TCOON,ioos:station:TCOON:003:1,2017-07-04T21:18:00Z,26.8015,-97.4706,1.386,1111122 
TCOON,ioos:station:TCOON:003:1,2017-07-04T22:18:00Z,26.8015,-97.4706,1.401,1111122 
TCOON,ioos:station:TCOON:003:1,2017-07-04T23:18:00Z,26.8015,-97.4706,1.409,1111122 
TCOON,ioos:station:TCOON:003:1,2017-07-05T00:18:00Z,26.8015,-97.4706,1.408,1111122 
TCOON,ioos:station:TCOON:003:1,2017-07-05T01:18:00Z,26.8015,-97.4706,1.4,1111122 
TCOON,ioos:station:TCOON:003:1,2017-07-05T02:18:00Z,26.8015,-97.4706,1.395,1111122 
TCOON,ioos:station:TCOON:003:1,2017-07-05T03:18:00Z,26.8015,-97.4706,1.39,1111122 
TCOON,ioos:station:TCOON:003:1,2017-07-05T04:18:00Z,26.8015,-97.4706,1.376,1111122 
TCOON,ioos:station:TCOON:003:1,2017-07-05T05:18:00Z,26.8015,-97.4706,1.359,1111122 
TCOON,ioos:station:TCOON:003:1,2017-07-05T06:18:00Z,26.8015,-97.4706,1.34,1111122 
TCOON,ioos:station:TCOON:003:1,2017-07-05T07:18:00Z,26.8015,-97.4706,1.329,1111122 
TCOON,ioos:station:TCOON:003:1,2017-07-05T08:18:00Z,26.8015,-97.4706,1.33,1111122 
TCOON,ioos:station:TCOON:003:1,2017-07-05T09:18:00Z,26.8015,-97.4706,1.327,1111122 
TCOON,ioos:station:TCOON:003:1,2017-07-05T10:18:00Z,26.8015,-97.4706,1.297,1111122 
TCOON,ioos:station:TCOON:003:1,2017-07-05T11:18:00Z,26.8015,-97.4706,1.258,1111122 
TCOON,ioos:station:TCOON:003:1,2017-07-05T12:18:00Z,26.8015,-97.4706,1.246,1111122 
TCOON,ioos:station:TCOON:003:1,2017-07-05T13:18:00Z,26.8015,-97.4706,1.264,1111122 
TCOON,ioos:station:TCOON:003:1,2017-07-05T14:18:00Z,26.8015,-97.4706,1.273,1111122 
TCOON,ioos:station:TCOON:003:1,2017-07-05T15:18:00Z,26.8015,-97.4706,1.268,1111122 
TCOON,ioos:station:TCOON:003:1,2017-07-05T16:18:00Z,26.8015,-97.4706,1.255,1111122 
TCOON,ioos:station:TCOON:003:1,2017-07-05T17:18:00Z,26.8015,-97.4706,1.255,1111122 
TCOON,ioos:station:TCOON:003:1,2017-07-05T18:18:00Z,26.8015,-97.4706,1.256,1111122 
TCOON,ioos:station:TCOON:003:1,2017-07-05T19:18:00Z,26.8015,-97.4706,1.264,1111122 
TCOON,ioos:station:TCOON:003:1,2017-07-05T20:18:00Z,26.8015,-97.4706,1.267,1111122 
TCOON,ioos:station:TCOON:003:1,2017-07-05T21:18:00Z,26.8015,-97.4706,1.277,1111122 
TCOON,ioos:station:TCOON:003:1,2017-07-05T22:18:00Z,26.8015,-97.4706,1.293,1111122 
TCOON,ioos:station:TCOON:003:1,2017-07-05T23:18:00Z,26.8015,-97.4706,1.308,1111122 
TCOON,ioos:station:TCOON:003:1,2017-07-06T00:18:00Z,26.8015,-97.4706,1.31,1111122 
TCOON,ioos:station:TCOON:003:1,2017-07-06T01:18:00Z,26.8015,-97.4706,1.304,1111122 
TCOON,ioos:station:TCOON:003:1,2017-07-06T02:18:00Z,26.8015,-97.4706,1.293,1111122 
TCOON,ioos:station:TCOON:003:1,2017-07-06T03:18:00Z,26.8015,-97.4706,1.286,1111122 
TCOON,ioos:station:TCOON:003:1,2017-07-06T04:18:00Z,26.8015,-97.4706,1.281,1111122 
TCOON,ioos:station:TCOON:003:1,2017-07-06T05:18:00Z,26.8015,-97.4706,1.273,1111122 
TCOON,ioos:station:TCOON:003:1,2017-07-06T06:18:00Z,26.8015,-97.4706,1.263,1111122 
TCOON,ioos:station:TCOON:003:1,2017-07-06T07:18:00Z,26.8015,-97.4706,1.251,1111122 
TCOON,ioos:station:TCOON:003:1,2017-07-06T08:18:00Z,26.8015,-97.4706,1.243,1111122 
TCOON,ioos:station:TCOON:003:1,2017-07-06T09:18:00Z,26.8015,-97.4706,1.231,1111122 
TCOON,ioos:station:TCOON:003:1,2017-07-06T10:18:00Z,26.8015,-97.4706,1.234,1111122 
TCOON,ioos:station:TCOON:003:1,2017-07-06T11:18:00Z,26.8015,-97.4706,1.236,1111122 
TCOON,ioos:station:TCOON:003:1,2017-07-06T12:18:00Z,26.8015,-97.4706,1.241,1111122 
TCOON,ioos:station:TCOON:003:1,2017-07-06T13:18:00Z,26.8015,-97.4706,1.248,1111122 
TCOON,ioos:station:TCOON:003:1,2017-07-06T14:18:00Z,26.8015,-97.4706,1.239,1111122 
TCOON,ioos:station:TCOON:003:1,2017-07-06T15:18:00Z,26.8015,-97.4706,1.233,1111122 
TCOON,ioos:station:TCOON:003:1,2017-07-06T16:18:00Z,26.8015,-97.4706,1.212,1111122 
TCOON,ioos:station:TCOON:003:1,2017-07-06T17:18:00Z,26.8015,-97.4706,1.216,1111122 
TCOON,ioos:station:TCOON:003:1,2017-07-06T18:18:00Z,26.8015,-97.4706,1.227,1111122 
TCOON,ioos:station:TCOON:003:1,2017-07-06T19:18:00Z,26.8015,-97.4706,1.225,1111122 
TCOON,ioos:station:TCOON:003:1,2017-07-06T20:18:00Z,26.8015,-97.4706,1.237,1111122 
TCOON,ioos:station:TCOON:003:1,2017-07-06T21:18:00Z,26.8015,-97.4706,1.242,1111122 
TCOON,ioos:station:TCOON:003:1,2017-07-06T22:18:00Z,26.8015,-97.4706,1.244,1111122 
TCOON,ioos:station:TCOON:003:1,2017-07-06T23:18:00Z,26.8015,-97.4706,1.251,1111122 
TCOON,ioos:station:TCOON:003:1,2017-07-07T00:18:00Z,26.8015,-97.4706,1.253,1111122 
TCOON,ioos:station:TCOON:003:1,2017-07-07T01:18:00Z,26.8015,-97.4706,1.245,1111122 
TCOON,ioos:station:TCOON:003:1,2017-07-07T02:18:00Z,26.8015,-97.4706,1.231,1111122 
TCOON,ioos:station:TCOON:003:1,2017-07-07T03:18:00Z,26.8015,-97.4706,1.225,1111122 
TCOON,ioos:station:TCOON:003:1,2017-07-07T04:18:00Z,26.8015,-97.4706,1.239,1111122 
TCOON,ioos:station:TCOON:003:1,2017-07-07T05:18:00Z,26.8015,-97.4706,1.247,1111122 
TCOON,ioos:station:TCOON:003:1,2017-07-07T06:18:00Z,26.8015,-97.4706,1.236,1111122 
TCOON,ioos:station:TCOON:003:1,2017-07-07T07:18:00Z,26.8015,-97.4706,1.231,1111122 
TCOON,ioos:station:TCOON:003:1,2017-07-07T08:18:00Z,26.8015,-97.4706,1.229,1111122 
TCOON,ioos:station:TCOON:003:1,2017-07-07T09:18:00Z,26.8015,-97.4706,1.212,1111122 
TCOON,ioos:station:TCOON:003:1,2017-07-07T10:18:00Z,26.8015,-97.4706,1.188,1111122 
TCOON,ioos:station:TCOON:003:1,2017-07-07T11:18:00Z,26.8015,-97.4706,1.184,1111122 
TCOON,ioos:station:TCOON:003:1,2017-07-07T12:18:00Z,26.8015,-97.4706,1.172,1111122 
TCOON,ioos:station:TCOON:003:1,2017-07-07T13:18:00Z,26.8015,-97.4706,1.169,1111122 
TCOON,ioos:station:TCOON:003:1,2017-07-07T14:18:00Z,26.8015,-97.4706,1.17,1111122 
TCOON,ioos:station:TCOON:003:1,2017-07-07T15:18:00Z,26.8015,-97.4706,1.169,1111122 
TCOON,ioos:station:TCOON:003:1,2017-07-07T16:18:00Z,26.8015,-97.4706,1.208,1111122 
TCOON,ioos:station:TCOON:003:1,2017-07-07T17:36:00Z,26.8015,-97.4706,1.18,1111122 
TCOON,ioos:station:TCOON:003:1,2017-07-07T18:18:00Z,26.8015,-97.4706,1.181,1111122 
TCOON,ioos:station:TCOON:003:1,2017-07-07T19:18:00Z,26.8015,-97.4706,1.196,1111122 
TCOON,ioos:station:TCOON:003:1,2017-07-07T20:18:00Z,26.8015,-97.4706,1.208,1111122 
TCOON,ioos:station:TCOON:003:1,2017-07-07T21:18:00Z,26.8015,-97.4706,1.256,1111122 
TCOON,ioos:station:TCOON:003:1,2017-07-07T22:18:00Z,26.8015,-97.4706,1.252,1111122 
TCOON,ioos:station:TCOON:003:1,2017-07-07T23:18:00Z,26.8015,-97.4706,1.201,1111122 
TCOON,ioos:station:TCOON:003:1,2017-07-08T00:18:00Z,26.8015,-97.4706,1.186,1111122 
TCOON,ioos:station:TCOON:003:1,2017-07-08T01:18:00Z,26.8015,-97.4706,1.175,1111122 
TCOON,ioos:station:TCOON:003:1,2017-07-08T02:18:00Z,26.8015,-97.4706,1.17,1111122 
TCOON,ioos:station:TCOON:003:1,2017-07-08T03:18:00Z,26.8015,-97.4706,1.177,1111122 
TCOON,ioos:station:TCOON:003:1,2017-07-08T04:18:00Z,26.8015,-97.4706,1.178,1111122 
TCOON,ioos:station:TCOON:003:1,2017-07-08T05:18:00Z,26.8015,-97.4706,1.157,1111122 
TCOON,ioos:station:TCOON:003:1,2017-07-08T06:18:00Z,26.8015,-97.4706,1.137,1111122 
TCOON,ioos:station:TCOON:003:1,2017-07-08T07:18:00Z,26.8015,-97.4706,1.13,1111122 
TCOON,ioos:station:TCOON:003:1,2017-07-08T08:18:00Z,26.8015,-97.4706,1.129,1111122 
TCOON,ioos:station:TCOON:003:1,2017-07-08T09:18:00Z,26.8015,-97.4706,1.13,1111122 
TCOON,ioos:station:TCOON:003:1,2017-07-08T10:18:00Z,26.8015,-97.4706,1.133,1111122 
TCOON,ioos:station:TCOON:003:1,2017-07-08T11:18:00Z,26.8015,-97.4706,1.134,1111122 
TCOON,ioos:station:TCOON:003:1,2017-07-08T12:18:00Z,26.8015,-97.4706,1.134,1111122 
TCOON,ioos:station:TCOON:003:1,2017-07-08T13:18:00Z,26.8015,-97.4706,1.13,1111122 
TCOON,ioos:station:TCOON:003:1,2017-07-08T14:18:00Z,26.8015,-97.4706,1.125,1111122 
TCOON,ioos:station:TCOON:003:1,2017-07-08T15:18:00Z,26.8015,-97.4706,1.128,1111122 
TCOON,ioos:station:TCOON:003:1,2017-07-08T16:18:00Z,26.8015,-97.4706,1.135,1111122 
TCOON,ioos:station:TCOON:003:1,2017-07-08T17:18:00Z,26.8015,-97.4706,1.143,1111122 
TCOON,ioos:station:TCOON:003:1,2017-07-08T18:18:00Z,26.8015,-97.4706,1.151,1111122 
TCOON,ioos:station:TCOON:003:1,2017-07-08T19:18:00Z,26.8015,-97.4706,1.163,1111122 
TCOON,ioos:station:TCOON:003:1,2017-07-08T20:18:00Z,26.8015,-97.4706,1.185,1111122 
TCOON,ioos:station:TCOON:003:1,2017-07-08T21:18:00Z,26.8015,-97.4706,1.188,1111122 
TCOON,ioos:station:TCOON:003:1,2017-07-08T22:18:00Z,26.8015,-97.4706,1.187,1111122 
TCOON,ioos:station:TCOON:003:1,2017-07-08T23:30:00Z,26.8015,-97.4706,1.139,1111122 
TCOON,ioos:station:TCOON:003:1,2017-07-09T00:30:00Z,26.8015,-97.4706,1.113,1111122 
TCOON,ioos:station:TCOON:003:1,2017-07-09T01:30:00Z,26.8015,-97.4706,1.134,1111122 
TCOON,ioos:station:TCOON:003:1,2017-07-09T02:18:00Z,26.8015,-97.4706,1.142,1111122 
TCOON,ioos:station:TCOON:003:1,2017-07-09T03:18:00Z,26.8015,-97.4706,1.135,1111122 
TCOON,ioos:station:TCOON:003:1,2017-07-09T04:18:00Z,26.8015,-97.4706,1.126,1111122 
TCOON,ioos:station:TCOON:003:1,2017-07-09T05:18:00Z,26.8015,-97.4706,1.117,1111122 
TCOON,ioos:station:TCOON:003:1,2017-07-09T06:18:00Z,26.8015,-97.4706,1.119,1111122 
TCOON,ioos:station:TCOON:003:1,2017-07-09T07:18:00Z,26.8015,-97.4706,1.12,1111122 
TCOON,ioos:station:TCOON:003:1,2017-07-09T08:18:00Z,26.8015,-97.4706,1.121,1111122 
TCOON,ioos:station:TCOON:003:1,2017-07-09T09:18:00Z,26.8015,-97.4706,1.116,1111122 
TCOON,ioos:station:TCOON:003:1,2017-07-09T10:18:00Z,26.8015,-97.4706,1.115,1111122 
TCOON,ioos:station:TCOON:003:1,2017-07-09T11:18:00Z,26.8015,-97.4706,1.115,1111122 
TCOON,ioos:station:TCOON:003:1,2017-07-09T12:18:00Z,26.8015,-97.4706,1.119,1111122 
TCOON,ioos:station:TCOON:003:1,2017-07-09T13:18:00Z,26.8015,-97.4706,1.127,1111122 
TCOON,ioos:station:TCOON:003:1,2017-07-09T14:18:00Z,26.8015,-97.4706,1.129,1111122 
TCOON,ioos:station:TCOON:003:1,2017-07-09T15:18:00Z,26.8015,-97.4706,1.137,1111122 
TCOON,ioos:station:TCOON:003:1,2017-07-09T16:18:00Z,26.8015,-97.4706,1.142,1111122 
TCOON,ioos:station:TCOON:003:1,2017-07-09T17:36:00Z,26.8015,-97.4706,1.15,1111122 
TCOON,ioos:station:TCOON:003:1,2017-07-09T18:36:00Z,26.8015,-97.4706,1.153,1111122 
TCOON,ioos:station:TCOON:003:1,2017-07-09T19:36:00Z,26.8015,-97.4706,1.155,1111122 
TCOON,ioos:station:TCOON:003:1,2017-07-09T20:36:00Z,26.8015,-97.4706,1.171,1111122 
TCOON,ioos:station:TCOON:003:1,2017-07-09T21:36:00Z,26.8015,-97.4706,1.192,1111122 
TCOON,ioos:station:TCOON:003:1,2017-07-09T22:30:00Z,26.8015,-97.4706,1.207,1111122 
TCOON,ioos:station:TCOON:003:1,2017-07-09T23:36:00Z,26.8015,-97.4706,1.227,1111122 
TCOON,ioos:station:TCOON:003:1,2017-07-10T00:30:00Z,26.8015,-97.4706,1.219,1111122 
TCOON,ioos:station:TCOON:003:1,2017-07-10T01:36:00Z,26.8015,-97.4706,1.19,1111122 
TCOON,ioos:station:TCOON:003:1,2017-07-10T02:36:00Z,26.8015,-97.4706,1.189,1111122 
TCOON,ioos:station:TCOON:003:1,2017-07-10T03:36:00Z,26.8015,-97.4706,1.182,1111122 
TCOON,ioos:station:TCOON:003:1,2017-07-10T04:42:00Z,26.8015,-97.4706,1.159,1111122 
TCOON,ioos:station:TCOON:003:1,2017-07-10T05:36:00Z,26.8015,-97.4706,1.145,1111122 
TCOON,ioos:station:TCOON:003:1,2017-07-10T06:36:00Z,26.8015,-97.4706,1.12,1111122 
TCOON,ioos:station:TCOON:003:1,2017-07-10T07:36:00Z,26.8015,-97.4706,1.116,1111122 
TCOON,ioos:station:TCOON:003:1,2017-07-10T08:36:00Z,26.8015,-97.4706,1.115,1111122 
TCOON,ioos:station:TCOON:003:1,2017-07-10T09:24:00Z,26.8015,-97.4706,1.11,1111122 
TCOON,ioos:station:TCOON:003:1,2017-07-10T10:18:00Z,26.8015,-97.4706,1.108,1111122 
TCOON,ioos:station:TCOON:003:1,2017-07-10T11:18:00Z,26.8015,-97.4706,1.107,1111122 
TCOON,ioos:station:TCOON:003:1,2017-07-10T12:18:00Z,26.8015,-97.4706,1.127,1111122 
TCOON,ioos:station:TCOON:003:1,2017-07-10T13:18:00Z,26.8015,-97.4706,1.138,1111122 
TCOON,ioos:station:TCOON:003:1,2017-07-10T14:18:00Z,26.8015,-97.4706,1.139,1111122 
TCOON,ioos:station:TCOON:003:1,2017-07-10T15:18:00Z,26.8015,-97.4706,1.128,1111122 
TCOON,ioos:station:TCOON:003:1,2017-07-10T16:18:00Z,26.8015,-97.4706,1.125,1111122 
TCOON,ioos:station:TCOON:003:1,2017-07-10T17:18:00Z,26.8015,-97.4706,1.129,1111122 
TCOON,ioos:station:TCOON:003:1,2017-07-10T18:18:00Z,26.8015,-97.4706,1.147,1111122 
TCOON,ioos:station:TCOON:003:1,2017-07-10T19:18:00Z,26.8015,-97.4706,1.16,1111122 
TCOON,ioos:station:TCOON:003:1,2017-07-10T20:18:00Z,26.8015,-97.4706,1.175,1111122 
TCOON,ioos:station:TCOON:003:1,2017-07-10T21:18:00Z,26.8015,-97.4706,1.188,1111122 
TCOON,ioos:station:TCOON:003:1,2017-07-10T22:18:00Z,26.8015,-97.4706,1.204,1111122 
TCOON,ioos:station:TCOON:003:1,2017-07-10T23:18:00Z,26.8015,-97.4706,1.212,1111122 
TCOON,ioos:station:TCOON:003:1,2017-07-11T00:18:00Z,26.8015,-97.4706,1.225,1111122 
TCOON,ioos:station:TCOON:003:1,2017-07-11T01:18:00Z,26.8015,-97.4706,1.242,1111122 
TCOON,ioos:station:TCOON:003:1,2017-07-11T02:18:00Z,26.8015,-97.4706,1.247,1111122 
TCOON,ioos:station:TCOON:003:1,2017-07-11T03:18:00Z,26.8015,-97.4706,1.245,1111122 
TCOON,ioos:station:TCOON:003:1,2017-07-11T04:18:00Z,26.8015,-97.4706,1.224,1111122 
TCOON,ioos:station:TCOON:003:1,2017-07-11T05:18:00Z,26.8015,-97.4706,1.191,1111122 
TCOON,ioos:station:TCOON:003:1,2017-07-11T06:18:00Z,26.8015,-97.4706,1.178,1111122 
TCOON,ioos:station:TCOON:003:1,2017-07-11T07:18:00Z,26.8015,-97.4706,1.184,1111122 
TCOON,ioos:station:TCOON:003:1,2017-07-11T08:18:00Z,26.8015,-97.4706,1.187,1111122 
TCOON,ioos:station:TCOON:003:1,2017-07-11T09:18:00Z,26.8015,-97.4706,1.176,1111122 
TCOON,ioos:station:TCOON:003:1,2017-07-11T10:18:00Z,26.8015,-97.4706,1.169,1111122 
TCOON,ioos:station:TCOON:003:1,2017-07-11T11:18:00Z,26.8015,-97.4706,1.146,1111122 
TCOON,ioos:station:TCOON:003:1,2017-07-11T12:18:00Z,26.8015,-97.4706,1.14,1111122 
TCOON,ioos:station:TCOON:003:1,2017-07-11T13:18:00Z,26.8015,-97.4706,1.149,1111122 
TCOON,ioos:station:TCOON:003:1,2017-07-11T14:18:00Z,26.8015,-97.4706,1.155,1111122 
TCOON,ioos:station:TCOON:003:1,2017-07-11T15:18:00Z,26.8015,-97.4706,1.161,1111122 
TCOON,ioos:station:TCOON:003:1,2017-07-11T16:18:00Z,26.8015,-97.4706,1.168,1111122 
TCOON,ioos:station:TCOON:003:1,2017-07-11T17:18:00Z,26.8015,-97.4706,1.18,1111122 
TCOON,ioos:station:TCOON:003:1,2017-07-11T18:18:00Z,26.8015,-97.4706,1.189,1111122 
TCOON,ioos:station:TCOON:003:1,2017-07-11T19:18:00Z,26.8015,-97.4706,1.194,1111122 
TCOON,ioos:station:TCOON:003:1,2017-07-11T20:18:00Z,26.8015,-97.4706,1.206,1111122 
TCOON,ioos:station:TCOON:003:1,2017-07-11T21:18:00Z,26.8015,-97.4706,1.238,1111122 
TCOON,ioos:station:TCOON:003:1,2017-07-11T22:18:00Z,26.8015,-97.4706,1.274,1111122 
TCOON,ioos:station:TCOON:003:1,2017-07-11T23:18:00Z,26.8015,-97.4706,1.299,1111122 
TCOON,ioos:station:TCOON:003:1,2017-07-12T00:18:00Z,26.8015,-97.4706,1.304,1111122 
TCOON,ioos:station:TCOON:003:1,2017-07-12T01:18:00Z,26.8015,-97.4706,1.298,1111122 
TCOON,ioos:station:TCOON:003:1,2017-07-12T02:18:00Z,26.8015,-97.4706,1.285,1111122 
TCOON,ioos:station:TCOON:003:1,2017-07-12T03:18:00Z,26.8015,-97.4706,1.267,1111122 
TCOON,ioos:station:TCOON:003:1,2017-07-12T04:18:00Z,26.8015,-97.4706,1.252,1111122 
TCOON,ioos:station:TCOON:003:1,2017-07-12T05:18:00Z,26.8015,-97.4706,1.247,1111122 
TCOON,ioos:station:TCOON:003:1,2017-07-12T06:18:00Z,26.8015,-97.4706,1.238,1111122 
TCOON,ioos:station:TCOON:003:1,2017-07-12T07:18:00Z,26.8015,-97.4706,1.227,1111122 
TCOON,ioos:station:TCOON:003:1,2017-07-12T08:18:00Z,26.8015,-97.4706,1.187,1111122 
TCOON,ioos:station:TCOON:003:1,2017-07-12T09:18:00Z,26.8015,-97.4706,1.161,1111122 
TCOON,ioos:station:TCOON:003:1,2017-07-12T10:18:00Z,26.8015,-97.4706,1.161,1111122 
TCOON,ioos:station:TCOON:003:1,2017-07-12T11:18:00Z,26.8015,-97.4706,1.176,1111122 
TCOON,ioos:station:TCOON:003:1,2017-07-12T12:18:00Z,26.8015,-97.4706,1.194,1111122 
TCOON,ioos:station:TCOON:003:1,2017-07-12T13:18:00Z,26.8015,-97.4706,1.169,1111122 
TCOON,ioos:station:TCOON:003:1,2017-07-12T14:18:00Z,26.8015,-97.4706,1.172,1111122 
TCOON,ioos:station:TCOON:003:1,2017-07-12T15:18:00Z,26.8015,-97.4706,1.182,1111122 
TCOON,ioos:station:TCOON:003:1,2017-07-12T16:18:00Z,26.8015,-97.4706,1.195,1111122 
TCOON,ioos:station:TCOON:003:1,2017-07-12T17:18:00Z,26.8015,-97.4706,1.186,1111122 
TCOON,ioos:station:TCOON:003:1,2017-07-12T18:18:00Z,26.8015,-97.4706,1.167,1111122 
TCOON,ioos:station:TCOON:003:1,2017-07-12T19:18:00Z,26.8015,-97.4706,1.174,1111122 
TCOON,ioos:station:TCOON:003:1,2017-07-12T20:18:00Z,26.8015,-97.4706,1.184,1111122 